GFSCGP_700_rhum_105.txt.gz
RH
13 13 9 8 12 17 26 29 26 16 17 33 39 38 36 13 10 10 31 29 29 28 25 23 22 24 24 31 30 22 24 23 28 28 35 30 28 27 40 69 85 76 59 51
32 31 24 31 31 38 43 44 41 34 38 44 40 39 33 31 33 24 20 27 27 28 27 23 22 22 23 26 28 30 27 20 28 30 31 31 31 32 30 48 57 43 50 60
53 42 38 38 38 43 39 45 45 45 43 45 42 41 37 37 30 34 21 27 30 32 28 26 22 22 22 23 26 26 30 30 30 30 32 34 35 39 36 45 51 43 44 45
36 34 29 33 34 30 34 31 28 21 30 48 44 50 46 39 32 28 30 34 33 31 26 26 24 22 22 22 26 25 29 29 30 32 33 34 35 37 31 35 35 44 42 45
28 25 25 24 24 24 24 22 20 23 43 49 47 53 48 48 46 28 34 39 38 36 30 21 21 22 21 20 24 25 28 27 30 31 32 34 34 36 32 32 34 39 50 50
27 36 41 43 42 41 41 50 41 21 44 65 47 54 49 49 48 50 47 47 52 54 48 41 28 28 25 21 25 24 25 28 30 31 33 35 35 35 35 33 35 47 53 48
40 33 33 34 32 35 45 62 74 76 62 61 47 46 46 58 70 60 54 64 59 68 66 71 62 50 51 40 31 21 22 25 27 29 31 32 28 33 35 42 42 52 57 45
60 54 53 54 60 63 52 51 58 69 73 60 62 64 93 99 99 85 96 87 74 73 97 85 68 66 65 52 40 32 39 37 26 27 26 26 35 44 44 51 60 59 46 41
74 75 63 58 48 54 59 70 38 64 67 80 60 48 69 96 96 100 100 88 90 80 92 93 94 79 68 67 66 54 46 42 32 29 28 29 32 39 44 58 66 49 42 38
87 82 60 48 51 50 66 48 82 94 95 91 54 75 98 92 88 97 99 98 100 100 85 100 87 99 71 63 58 47 44 48 40 36 34 36 45 56 68 68 56 48 49 33
56 74 64 58 47 40 76 97 96 87 71 86 78 98 96 97 94 96 98 96 98 98 100 100 99 65 60 62 74 75 75 66 63 58 41 44 55 66 67 62 59 58 39 33
70 94 94 58 82 84 71 72 96 95 88 69 68 99 97 97 94 96 83 68 64 77 95 96 73 98 100 99 99 92 84 70 66 64 64 59 58 65 68 70 70 51 41 36
87 96 91 58 93 87 94 96 98 98 98 83 92 97 96 97 95 97 98 93 84 46 75 66 79 98 99 100 100 100 97 78 76 75 73 72 72 71 79 72 74 51 51 57
80 88 87 76 63 82 94 92 95 98 98 96 96 97 94 97 97 100 100 100 99 74 57 64 76 83 89 100 100 99 98 92 84 100 99 95 100 93 88 85 87 64 64 61
83 92 97 88 90 96 96 97 100 98 100 93 96 95 95 91 100 100 100 100 100 93 81 86 86 91 91 99 99 99 99 99 89 83 75 69 82 88 97 100 82 67 61 61
96 89 96 94 97 97 97 96 100 96 97 96 96 93 91 95 99 100 100 100 100 99 98 94 95 93 88 97 98 98 98 98 100 98 100 99 95 94 99 99 80 70 66 59
96 96 96 98 87 76 75 96 95 96 97 99 100 100 97 96 98 98 97 97 98 99 95 86 83 84 91 90 89 100 98 98 92 100 99 100 98 100 99 96 80 71 76 63
92 97 97 97 98 89 98 96 95 94 100 100 100 100 97 94 92 97 97 97 99 97 91 86 83 78 75 79 85 92 87 100 98 100 99 92 95 100 98 100 93 78 70 72
99 98 97 96 99 96 96 95 98 98 95 100 100 98 100 97 98 97 97 99 100 97 97 95 91 86 82 74 71 73 80 86 99 99 99 99 100 99 99 99 100 100 96 89
97 97 98 95 87 91 97 99 88 88 88 90 96 92 91 92 97 94 92 98 100 100 100 100 99 96 91 87 88 86 80 84 99 100 99 92 100 100 99 100 100 97 100 99
93 95 92 86 98 96 98 97 98 87 93 88 92 89 95 96 91 93 97 98 98 99 95 96 93 89 87 88 86 82 79 74 82 90 97 98 100 99 100 100 100 100 100 100
96 95 85 80 82 90 86 97 80 90 94 94 95 93 96 88 89 94 96 99 100 100 100 96 94 90 88 85 83 80 72 75 80 86 89 91 95 97 97 98 98 99 99 99
83 92 92 88 94 98 94 88 89 91 98 97 96 95 94 94 94 94 96 98 97 94 91 93 91 93 90 82 84 86 79 81 81 81 78 78 84 88 91 94 95 97 98 95
94 91 82 87 89 92 94 90 91 92 96 99 100 98 97 99 100 100 98 92 87 82 77 71 69 67 65 64 64 63 69 77 83 82 82 83 83 83 85 86 89 92 95 97
78 84 83 84 83 87 91 91 92 94 98 99 99 98 99 98 99 95 93 83 72 69 70 67 64 57 51 47 43 40 39 42 45 48 54 63 74 81 84 88 90 93 96 95
77 85 85 84 86 89 94 94 94 97 97 98 98 98 99 98 99 84 77 73 69 63 52 42 30 18 12 10 10 10 10 10 9 10 10 11 14 20 32 48 63 79 91 94

GFSCGP_700_rhum_108.txt.gz
RH
35 28 18 12 13 17 28 30 31 26 33 34 32 22 4 9 16 11 8 7 7 6 2 5 8 12 24 26 24 25 27 26 24 30 28 30 35 37 36 36 31 44 69 52
28 19 15 30 37 36 45 44 37 32 39 36 31 20 13 10 23 25 11 8 9 7 10 12 26 25 25 23 24 24 24 28 29 24 27 28 29 32 37 35 33 33 65 76
32 34 39 41 39 37 35 41 40 34 31 28 23 20 15 18 10 10 10 19 23 21 24 26 25 28 27 27 23 23 23 26 26 29 26 25 30 37 34 35 38 34 35 78
46 41 40 38 34 30 27 26 25 25 24 27 28 42 10 22 10 12 20 47 40 38 32 36 32 29 28 25 25 22 23 23 26 24 30 27 24 30 32 38 39 37 36 62
31 31 30 27 26 29 31 26 26 28 34 48 26 38 22 22 15 45 48 70 59 50 45 39 37 30 23 23 23 23 22 22 25 24 25 30 30 30 35 36 36 38 36 54
33 32 32 32 37 38 35 35 38 40 45 58 37 33 33 43 81 75 89 91 72 62 57 50 48 40 30 20 16 21 22 22 23 26 26 30 31 32 33 34 34 37 35 37
30 27 29 36 38 35 55 66 69 74 86 58 34 41 47 83 88 96 96 100 100 97 96 88 87 53 56 42 21 20 20 21 24 27 28 28 31 32 33 35 36 34 33 39
47 46 47 70 47 63 61 53 62 71 71 61 46 54 89 97 99 100 99 97 100 100 100 98 99 99 93 63 47 29 28 26 24 26 27 28 27 33 35 35 36 38 42 43
50 73 69 60 48 48 59 59 44 57 56 65 60 55 70 84 87 88 96 96 98 99 99 97 96 100 91 72 69 57 60 49 33 27 25 26 28 33 33 37 39 38 52 84
60 74 52 52 52 41 60 65 79 92 97 96 66 77 96 77 77 94 96 96 97 98 100 98 90 82 100 77 71 67 63 64 56 46 43 36 35 36 46 45 38 42 55 76
58 73 61 56 48 45 56 84 83 82 80 93 92 96 100 94 91 94 96 96 96 97 98 99 99 98 100 100 94 79 67 61 63 49 47 48 43 43 46 38 39 51 64 66
69 94 99 61 91 96 88 70 83 94 95 82 68 97 89 91 97 95 92 95 99 97 98 98 99 100 100 99 99 75 71 67 71 61 61 60 51 43 41 46 56 65 68 60
88 90 85 58 89 85 91 95 96 97 96 96 89 99 93 94 96 99 100 100 100 98 95 96 99 99 100 100 98 79 73 74 73 73 69 68 68 66 58 67 71 70 70 75
82 75 64 68 48 75 87 94 96 100 97 96 98 96 95 95 94 96 98 99 100 99 98 99 100 100 99 100 100 100 100 87 84 80 84 82 83 79 77 82 76 84 95 93
73 78 68 78 76 96 97 96 96 98 98 97 96 95 95 96 94 93 98 99 97 100 100 100 100 100 100 98 98 100 96 96 99 75 74 87 89 90 90 97 98 99 99 86
97 96 94 85 90 97 96 96 96 96 97 96 95 94 96 98 98 96 97 97 97 100 100 97 100 100 100 98 100 99 99 100 100 97 97 94 100 99 96 99 100 100 85 93
97 96 95 96 91 96 91 96 95 95 97 96 94 97 97 98 97 97 97 96 98 99 95 87 88 94 96 98 95 100 99 100 100 99 100 100 100 97 100 98 87 97 93 89
96 96 96 95 96 91 95 96 97 93 89 91 93 97 97 96 95 96 96 97 98 98 98 100 100 100 94 89 89 96 100 100 100 100 100 88 99 98 100 97 100 99 98 90
96 98 96 96 96 97 100 98 96 92 92 95 98 98 95 96 95 97 96 96 95 96 96 100 100 98 94 92 90 91 90 91 99 100 92 100 100 100 99 100 99 99 100 99
97 96 97 95 82 92 95 94 92 88 93 95 91 95 94 96 97 97 96 96 97 97 96 100 100 97 90 85 85 82 83 91 99 100 100 100 100 99 100 98 100 99 100 100
95 96 96 88 96 97 100 96 95 95 91 93 94 94 96 99 96 96 98 100 100 98 99 99 96 88 82 83 85 78 73 66 74 80 80 82 91 92 99 97 99 100 100 100
95 95 94 83 93 91 97 98 90 91 90 92 95 89 96 93 93 100 100 100 100 100 98 94 90 85 83 83 84 81 72 77 80 82 79 76 76 76 79 89 97 96 98 98
89 89 93 89 91 97 95 91 88 90 92 92 94 95 96 95 96 99 100 99 91 80 73 69 67 68 64 59 55 52 52 60 64 70 75 79 81 80 79 80 78 76 78 89
86 86 87 89 94 93 93 90 88 91 96 96 96 94 94 98 98 98 86 74 71 71 67 59 54 44 32 23 17 14 13 14 15 17 20 26 33 45 60 72 78 82 84 82
82 82 82 82 88 87 87 87 86 91 92 94 95 96 97 96 96 86 77 73 69 59 45 28 15 10 10 10 11 11 12 12 12 12 11 11 10 10 10 9 10 17 37 66
78 81 82 83 84 83 87 90 89 91 96 97 94 93 93 92 83 75 72 62 41 20 11 11 11 13 14 14 14 13 12 11 11 10 10 10 10 10 10 11 12 12 11 11

GFSCGP_700_rhum_114.txt.gz
RH
36 34 32 27 30 33 32 30 26 22 28 32 28 24 21 17 17 18 16 21 19 8 4 3 3 2 2 2 2 2 5 24 30 35 45 52 60 67 72 83 52 42 34 29
40 31 31 40 38 36 33 29 25 27 35 32 20 15 15 15 17 21 23 21 6 5 4 3 3 2 2 2 2 2 2 2 9 21 27 34 36 42 56 59 76 81 40 35
29 23 33 31 35 36 32 33 30 28 24 22 18 15 11 18 22 30 20 12 8 5 4 5 5 6 7 5 2 2 2 2 5 6 10 20 25 31 33 34 39 48 36 33
34 30 36 38 36 35 30 29 29 27 26 18 20 20 19 17 27 60 22 15 20 26 34 33 33 32 28 28 16 10 6 7 13 26 19 21 27 24 24 29 29 30 34 30
33 37 38 39 37 36 30 35 35 35 33 32 26 26 23 17 25 52 28 43 50 50 42 31 32 31 39 34 26 14 14 19 27 29 27 24 26 26 26 25 24 28 30 29
37 36 35 37 39 34 37 38 35 37 37 32 24 20 20 31 56 42 30 53 44 58 58 54 52 44 46 43 40 36 20 25 32 31 31 28 25 24 25 26 27 24 28 29
41 42 45 34 36 43 45 42 29 31 43 31 29 33 21 65 52 53 75 70 75 84 74 65 58 55 50 50 51 58 48 43 44 36 26 29 27 23 23 25 25 26 22 26
33 30 45 34 41 40 51 45 29 24 20 18 37 32 34 56 51 88 83 78 84 82 73 72 76 70 58 56 64 76 90 53 48 43 27 28 27 23 22 24 24 26 24 25
39 35 32 27 38 44 44 52 41 41 39 41 32 26 44 57 80 75 80 77 82 74 74 78 83 77 75 62 64 67 78 98 98 55 29 27 25 23 22 24 26 26 28 30
51 41 34 56 58 58 49 56 65 52 64 53 30 33 65 92 82 71 74 79 75 75 79 80 90 77 84 78 80 62 77 99 87 55 32 21 20 22 22 26 26 24 31 33
66 60 46 59 54 45 63 61 64 64 61 58 57 78 88 71 77 78 86 83 85 81 83 80 91 82 87 84 83 83 99 97 77 58 36 22 21 23 22 27 26 29 32 44
74 87 64 58 67 83 60 58 62 65 66 62 72 72 85 89 88 92 95 89 90 89 92 91 92 97 97 98 97 97 100 99 94 72 61 56 49 43 48 46 35 38 44 44
78 77 63 68 89 99 98 88 72 87 96 76 78 86 90 94 94 95 95 92 92 94 97 97 97 97 98 98 98 99 99 99 100 86 80 72 58 65 56 51 51 50 61 60
61 59 73 45 42 54 75 98 98 99 96 70 87 98 95 92 96 96 94 95 95 95 98 98 98 97 98 100 99 98 100 100 100 98 89 91 92 75 70 56 51 48 53 68
97 91 89 61 78 85 98 100 100 100 100 98 95 96 94 95 96 95 95 96 96 96 98 98 98 97 98 100 100 99 99 99 97 100 100 99 98 82 74 70 65 63 67 75
98 85 98 98 92 100 98 98 100 96 95 97 96 95 95 95 95 98 97 96 96 96 96 96 97 97 98 98 98 99 98 99 99 99 99 96 97 97 81 71 79 76 88 87
96 97 96 93 100 99 96 95 95 96 95 97 98 95 95 97 97 96 95 95 96 96 97 98 100 100 99 100 100 100 99 99 99 99 98 99 100 100 100 100 99 99 99 99
94 96 97 88 95 88 92 96 95 96 95 96 96 95 97 98 94 96 95 96 96 96 97 98 97 97 94 95 95 99 100 99 98 100 99 99 100 100 99 99 100 100 100 100
96 97 98 92 80 93 98 95 94 96 95 95 95 95 96 96 94 96 95 95 95 96 95 96 94 91 92 87 87 85 83 83 84 86 90 95 96 98 99 98 98 99 98 99
97 96 96 88 72 72 99 91 88 93 100 95 94 94 94 94 97 94 95 95 93 83 77 74 71 68 64 60 63 66 66 66 65 69 71 72 75 85 92 96 98 99 98 98
98 96 97 89 90 90 78 83 87 97 93 94 93 94 94 96 94 94 91 85 75 72 65 55 41 26 18 13 12 12 11 12 12 12 17 28 40 51 58 67 69 76 85 90
97 97 96 98 89 81 78 89 93 88 88 92 92 95 96 97 94 87 80 74 68 54 33 16 12 11 11 11 12 11 10 10 10 10 10 9 9 9 8 9 10 14 24 40
97 91 100 87 92 76 85 85 87 88 92 90 95 91 96 96 87 75 74 67 46 18 12 11 12 13 13 11 10 9 8 8 7 6 6 6 6 6 6 6 6 6 7 7
93 95 96 94 82 72 96 90 87 90 91 90 93 94 87 88 73 71 64 41 14 11 12 14 14 12 11 10 9 8 7 7 6 7 7 7 7 7 7 6 6 6 6 6
82 95 93 83 85 95 94 89 91 91 92 94 94 91 88 85 77 65 39 14 11 13 14 14 13 12 11 10 10 10 9 9 9 10 10 10 9 9 9 8 8 8 7 7
70 82 80 91 89 86 90 90 91 95 94 93 95 92 90 75 72 44 15 11 14 15 14 14 14 13 13 12 13 13 13 13 13 13 12 12 11 11 11 10 10 10 9 9

GFSCGP_700_rhum_117.txt.gz
RH
32 33 29 25 25 24 26 27 23 18 17 17 20 23 19 16 14 13 14 14 16 25 30 15 7 4 4 3 3 3 3 3 14 31 35 42 59 56 67 72 60 49 38 53
34 38 35 26 25 30 32 25 21 20 19 21 25 22 16 15 15 14 16 18 32 45 27 10 6 5 4 3 3 3 2 2 2 3 16 31 35 40 53 54 63 76 70 70
29 31 28 28 30 30 27 24 23 23 23 22 19 18 17 16 17 18 41 43 50 39 18 10 8 8 7 6 4 4 4 2 2 2 2 7 24 36 43 53 54 51 60 80
28 26 28 27 31 28 23 22 24 25 25 23 24 22 22 22 20 30 63 90 25 22 28 30 32 33 29 26 16 14 13 17 10 5 3 3 4 13 23 29 44 40 43 48
29 26 34 30 25 28 30 30 31 29 29 28 26 23 23 21 20 39 89 48 27 30 44 38 41 36 33 28 26 30 29 23 25 17 10 5 5 6 11 23 45 37 32 50
35 33 34 30 30 32 32 32 34 33 32 32 29 25 22 34 57 72 59 37 26 32 47 52 57 49 46 42 40 30 33 34 32 24 19 14 10 16 20 21 50 52 31 32
34 33 35 39 38 35 40 40 36 36 32 31 26 23 21 65 75 39 30 22 28 56 58 61 58 55 54 55 55 45 42 42 36 31 23 26 20 21 29 28 27 96 54 26
39 42 35 36 41 30 28 35 35 39 32 24 18 22 36 82 86 80 34 58 66 65 67 66 62 63 60 61 58 62 44 42 45 50 43 36 27 21 22 29 30 33 97 36
31 29 35 38 42 41 29 31 36 36 36 36 29 22 56 87 96 65 73 67 74 76 73 73 72 70 69 66 65 62 54 41 45 65 83 67 42 36 34 26 30 30 70 45
40 38 30 34 48 48 44 35 40 42 54 45 25 23 70 78 75 64 64 67 78 78 79 78 76 78 71 74 79 76 66 60 53 64 81 74 56 49 34 24 29 27 30 56
38 51 38 42 40 40 34 47 44 41 59 55 55 83 94 70 63 62 76 87 85 82 84 82 86 87 95 94 94 88 82 76 78 91 89 64 50 39 31 21 28 30 36 44
52 63 52 36 34 45 45 41 46 53 47 61 45 55 81 76 71 80 94 94 93 90 88 90 93 100 97 98 98 100 99 88 82 79 83 60 45 23 24 26 36 36 54 72
62 57 53 45 54 76 85 66 46 66 82 74 83 74 81 82 81 88 95 95 94 96 96 96 97 96 97 97 100 99 99 100 80 100 75 65 46 29 25 33 50 65 62 85
81 78 65 55 82 67 79 73 76 64 69 58 58 97 94 93 95 95 95 95 96 96 96 97 97 96 98 100 98 98 98 99 99 99 98 82 61 54 52 47 63 78 68 53
79 84 69 69 72 65 66 72 83 95 89 95 82 100 93 94 96 95 95 96 96 96 96 96 97 98 99 97 97 98 98 98 99 99 99 93 85 72 70 79 65 64 62 58
84 90 91 90 81 85 90 94 98 92 95 90 91 96 96 95 96 95 95 96 95 96 96 96 96 97 97 98 99 100 99 98 98 99 99 99 100 98 88 88 91 77 71 68
86 93 100 86 82 93 96 98 87 100 91 96 99 95 95 95 95 95 96 95 95 96 96 96 95 97 94 97 96 96 99 99 99 99 99 99 99 98 100 99 100 96 92 84
86 94 99 84 93 84 88 82 90 96 94 96 90 96 95 95 96 96 96 96 96 96 95 90 90 93 92 89 88 86 86 90 94 96 98 93 94 98 99 98 99 100 100 100
92 94 98 89 75 95 97 83 90 94 94 96 94 95 95 95 94 97 96 96 94 81 69 62 51 42 41 43 46 53 61 66 69 68 71 78 91 96 96 98 98 98 98 99
100 99 97 94 70 70 100 82 90 94 97 94 96 94 95 95 97 97 95 90 74 59 40 21 12 12 12 11 11 10 10 10 9 9 11 18 29 44 48 61 91 96 98 99
95 96 96 87 86 98 92 82 87 98 94 86 91 92 93 90 91 96 84 71 55 27 12 12 12 12 11 11 10 9 8 6 6 6 6 6 7 6 7 7 8 10 11 15
91 96 98 87 92 90 75 84 90 92 82 84 86 89 89 92 94 86 71 56 26 12 12 13 13 11 10 8 7 7 7 7 7 7 7 7 7 7 6 6 6 6 6 6
99 99 98 83 95 81 72 74 84 79 83 82 83 82 87 88 86 71 60 30 12 12 14 12 11 10 9 8 8 9 9 9 9 9 9 9 9 8 8 8 8 7 7 7
76 83 96 85 79 79 70 81 83 80 80 81 84 83 84 80 70 64 41 13 11 14 13 12 11 10 10 11 12 12 13 13 13 12 12 11 11 10 10 10 10 10 10 9
90 85 91 94 86 80 77 88 83 80 83 84 85 88 87 75 67 52 18 11 14 14 13 13 12 13 14 15 15 15 15 15 14 14 14 13 13 13 12 12 12 12 11 11
63 71 91 95 77 84 91 88 84 87 87 88 89 86 82 72 63 31 11 13 15 14 14 14 14 16 17 17 17 17 17 17 16 16 16 15 15 15 15 15 14 14 14 13

GFSCGP_700_rhum_123.txt.gz
RH
37 40 37 34 32 30 30 31 30 26 26 26 27 26 23 21 20 19 19 19 21 22 22 21 19 20 21 22 24 24 22 21 18 17 9 7 8 23 30 48 80 89 86 92
37 42 34 36 33 34 35 35 32 28 27 29 27 24 22 22 21 22 22 22 24 28 28 25 19 20 18 19 22 24 24 19 12 10 10 5 4 4 13 28 36 68 81 78
45 41 39 40 37 34 34 30 31 29 28 27 24 24 24 23 23 27 30 30 27 28 30 29 26 25 26 24 22 19 17 14 11 6 7 5 4 4 4 11 22 32 50 75
43 40 38 34 33 31 30 28 28 28 27 29 29 33 28 24 25 30 33 39 37 39 45 36 33 31 26 23 20 20 21 22 16 11 10 10 5 4 3 3 7 16 27 35
40 34 31 29 29 26 27 30 30 30 30 30 28 33 28 29 36 49 52 47 46 39 36 38 35 35 34 32 29 24 19 20 22 31 35 24 12 7 4 4 4 8 17 29
44 40 39 31 28 29 31 30 30 30 32 39 29 34 38 51 80 80 66 58 58 54 49 37 29 26 26 30 35 34 32 29 34 34 31 29 26 17 9 6 5 5 6 21
33 34 33 29 27 31 32 33 41 56 58 50 35 37 70 76 80 83 68 55 47 40 32 27 28 33 36 41 43 43 43 43 42 37 37 35 28 25 22 19 13 12 7 7
37 34 32 35 32 31 34 38 43 64 62 48 39 40 95 84 92 74 58 58 54 49 45 43 43 46 49 50 50 50 50 60 68 66 62 57 50 38 32 28 20 18 17 12
36 36 35 33 36 40 41 40 38 39 48 44 39 50 86 93 91 90 75 70 60 50 49 45 47 55 58 57 62 71 77 80 78 75 68 63 64 54 48 39 23 25 29 23
39 42 40 40 39 37 38 38 39 41 65 61 43 47 68 85 93 94 88 70 64 62 58 56 62 63 67 73 76 84 88 81 82 87 89 77 68 63 55 42 32 33 33 32
42 41 40 39 37 36 39 36 40 44 45 69 77 55 37 71 79 72 75 68 65 65 67 71 72 76 81 87 92 96 95 93 91 100 100 96 79 72 58 49 44 41 40 45
41 41 44 40 34 33 46 42 37 44 50 46 50 64 54 72 86 75 79 72 76 80 87 86 86 90 93 95 96 96 96 95 96 96 88 86 96 95 77 61 62 64 48 44
44 48 50 50 37 41 48 43 39 44 56 55 85 82 63 73 78 81 81 82 86 90 94 93 94 94 95 96 96 96 96 96 97 98 99 99 100 98 96 70 42 30 35 36
48 51 49 52 49 72 64 64 60 69 96 78 66 70 70 81 84 88 87 92 94 94 95 94 95 96 95 95 96 96 96 96 97 99 98 100 99 100 100 100 97 48 47 47
55 55 48 53 51 42 40 39 54 64 72 74 72 82 88 91 94 87 91 95 96 96 96 95 95 95 95 96 97 97 97 96 97 98 100 97 96 99 99 100 100 97 73 57
61 52 57 51 36 44 50 52 48 48 50 64 69 84 83 78 88 94 95 96 96 95 96 95 95 93 91 82 79 88 96 96 97 98 97 97 98 98 97 99 99 100 100 99
60 59 79 73 78 92 87 76 60 49 70 74 84 82 90 85 94 95 95 96 96 96 94 82 20 14 12 11 11 14 14 13 19 37 69 87 93 97 97 97 98 98 96 98
59 71 88 79 68 96 61 66 68 67 75 92 97 98 96 95 94 95 95 95 96 92 60 16 12 11 9 7 6 6 6 6 6 6 6 7 7 9 20 56 78 91 95 97
83 90 81 86 86 71 70 77 73 63 79 85 86 80 88 94 95 94 95 96 93 27 14 12 10 7 6 6 6 7 8 8 8 8 8 8 7 7 6 6 6 6 9 21
91 94 87 96 96 92 82 86 68 77 75 65 69 78 83 88 92 94 95 87 22 12 12 9 7 6 7 8 9 10 10 10 10 10 10 10 10 10 9 9 8 8 8 7
99 98 93 100 94 75 73 80 78 97 78 70 77 80 82 86 92 90 80 39 13 13 10 8 7 8 9 11 12 12 12 12 12 13 13 13 12 12 12 12 11 10 10 10
85 95 98 100 96 91 92 87 82 72 84 75 76 81 82 87 86 82 62 20 12 12 10 8 9 10 12 14 14 15 15 15 15 15 15 14 13 13 13 12 12 12 12 11
88 72 83 82 82 82 84 82 84 84 72 77 77 80 87 88 87 76 50 13 13 11 10 10 11 14 15 16 17 18 16 16 15 15 13 12 13 13 12 12 12 12 12 11
96 95 87 88 80 86 81 81 73 65 74 76 81 86 88 87 87 70 38 12 13 12 11 12 15 16 17 18 17 15 14 14 14 14 14 14 14 14 14 13 13 12 12 12
89 86 72 60 58 67 70 73 72 69 74 77 78 83 87 86 77 63 20 12 13 12 12 15 17 18 18 14 13 13 14 14 13 12 12 12 12 12 12 12 13 13 13 12
75 78 67 51 49 68 74 77 77 76 78 78 78 76 81 80 71 53 15 12 13 13 14 16 18 17 14 12 13 14 14 13 13 13 13 13 14 15 16 16 15 14 13 13

GFSCGP_700_rhum_126.txt.gz
RH
26 33 22 25 35 34 32 32 34 36 34 30 26 27 28 26 24 22 22 22 22 22 22 22 21 22 22 20 19 21 20 21 20 22 24 20 17 16 17 17 23 36 63 72
33 34 28 36 37 37 34 35 35 35 31 31 29 29 28 25 24 24 24 24 25 25 25 24 23 24 26 26 27 24 23 24 23 23 26 25 18 17 11 9 12 17 33 56
44 33 39 41 42 42 38 34 35 31 30 29 28 28 27 28 26 26 27 28 28 30 28 29 27 28 27 36 42 40 34 29 31 27 22 19 21 19 14 8 6 6 9 30
47 36 39 40 42 40 32 31 30 29 29 30 31 33 27 29 29 31 31 31 33 37 37 38 38 44 46 47 44 38 33 31 28 28 28 27 26 24 22 10 6 6 4 6
37 37 37 38 36 32 30 29 30 30 30 30 32 31 26 29 34 41 43 45 50 52 59 62 59 52 47 41 37 35 35 36 32 28 21 16 13 10 9 5 4 4 5 4
42 41 38 32 32 34 30 30 30 31 31 39 32 35 34 36 44 47 57 67 72 70 62 54 48 42 38 34 33 30 27 28 32 33 33 33 31 23 22 19 12 6 5 5
42 38 32 34 34 32 29 32 39 51 58 54 38 41 52 46 53 63 78 77 66 52 48 45 42 39 36 33 32 31 34 38 41 43 42 42 41 32 25 22 20 18 10 7
36 36 33 33 34 33 32 32 38 63 68 56 43 42 50 43 61 76 81 69 68 65 59 55 50 46 42 38 36 40 47 50 52 58 75 75 67 56 46 36 29 25 21 16
37 37 36 34 33 38 38 39 38 38 40 51 48 56 57 52 67 75 81 81 79 63 58 52 50 50 52 52 53 61 72 77 82 83 81 78 71 66 63 60 55 48 36 26
40 40 40 38 39 36 37 38 39 40 59 60 47 44 49 63 77 86 82 68 69 64 53 55 58 61 67 74 82 87 93 90 94 94 89 89 88 85 74 67 55 51 45 34
42 42 41 40 39 39 37 38 40 38 38 63 76 52 40 43 57 66 77 67 67 63 59 68 72 79 84 90 91 92 94 97 97 96 94 91 84 89 74 67 60 52 42 32
42 42 42 42 41 39 35 36 48 44 49 46 48 53 43 47 49 67 70 76 75 69 75 81 84 90 97 95 96 96 95 96 92 90 87 97 100 99 100 98 80 52 40 36
46 45 42 41 40 38 38 44 51 60 71 62 62 58 45 49 54 63 76 80 74 79 87 91 92 95 95 96 95 95 95 94 92 93 96 98 98 100 100 100 88 57 41 28
48 47 46 47 45 47 49 49 52 58 76 69 65 57 50 58 65 80 84 78 80 88 92 95 95 94 95 95 96 95 95 94 98 96 97 98 98 98 100 98 96 67 42 43
51 51 53 54 54 52 52 40 22 35 39 83 66 72 74 78 86 86 79 85 90 91 95 96 96 95 93 66 76 94 96 96 96 97 97 97 97 97 97 98 99 99 99 97
58 57 60 59 50 31 36 25 40 43 41 41 58 64 68 76 82 85 83 88 92 95 96 96 82 46 17 11 10 10 10 28 32 63 73 87 95 97 96 97 96 97 97 94
61 64 66 60 42 80 82 40 53 60 42 29 47 41 62 79 93 94 90 91 95 96 94 35 14 11 9 7 6 6 6 6 6 6 6 7 10 26 43 48 58 70 80 96
64 66 59 68 63 94 46 64 69 66 62 62 72 82 96 97 97 94 94 95 96 95 57 19 10 6 6 6 7 7 8 8 8 9 9 9 8 8 7 7 8 8 11 15
65 66 72 71 91 54 56 54 73 82 67 65 75 90 92 94 96 95 95 95 95 67 33 11 6 6 7 8 9 10 10 11 12 12 12 12 12 12 11 11 11 10 10 8
75 80 84 86 96 94 81 77 61 68 62 58 66 75 75 83 94 94 94 95 76 16 12 8 6 8 9 10 11 12 13 14 14 13 13 13 13 12 12 12 12 12 11 11
94 99 95 98 92 69 64 60 70 78 57 70 73 80 76 83 94 95 95 89 21 12 10 7 8 10 11 13 14 15 16 14 14 14 13 13 12 12 12 12 12 12 12 11
91 96 100 100 96 84 64 64 71 65 72 75 76 86 84 85 91 94 89 28 12 12 8 7 9 12 14 15 17 17 15 13 13 14 14 13 13 13 13 13 13 13 12 12
95 86 83 73 65 53 61 63 73 75 73 75 78 87 86 87 90 88 64 18 13 10 9 10 13 15 16 18 18 15 14 15 15 15 14 14 14 14 14 14 14 13 13 12
98 95 85 78 68 71 80 75 73 77 70 67 78 88 85 89 90 81 54 14 13 11 10 12 15 17 19 17 15 15 15 14 15 14 13 13 13 13 14 14 14 14 14 13
92 92 87 81 73 75 52 52 69 73 73 70 73 83 87 87 88 76 50 12 13 12 12 14 17 19 17 14 14 14 14 13 13 12 11 11 11 11 12 12 12 13 13 13
69 75 80 72 63 50 41 56 69 74 77 76 77 80 82 87 90 74 42 12 13 12 13 16 18 17 14 13 14 13 12 12 12 13 13 13 13 13 12 12 14 17 18 16

GFSCGP_700_rhum_132.txt.gz
RH
18 22 12 17 26 32 32 33 38 34 33 36 32 33 33 32 31 31 30 29 29 28 27 26 25 25 25 25 26 27 28 28 28 27 25 25 28 34 32 28 29 28 26 26
22 23 20 24 30 33 35 39 37 39 36 36 35 34 34 33 33 30 28 27 26 27 27 27 27 28 29 31 33 36 36 35 33 32 34 33 30 31 33 30 29 31 29 28
25 29 28 33 33 35 38 40 42 43 36 34 33 32 31 30 30 28 27 28 27 28 29 31 36 40 42 45 49 52 54 54 53 51 50 48 44 40 36 36 37 36 34 32
36 34 33 38 35 38 47 40 42 35 33 32 32 35 30 29 29 30 27 28 30 31 37 41 43 49 54 58 60 56 52 47 43 40 38 38 39 39 38 38 36 35 33 31
35 36 34 36 38 42 42 39 34 32 32 32 34 33 28 31 30 30 31 32 35 41 40 44 54 56 60 58 51 46 39 32 29 28 27 26 25 24 23 27 31 30 26 23
43 47 42 35 38 41 43 44 43 41 36 42 33 33 30 31 31 34 35 39 40 39 46 60 56 51 42 36 34 34 32 32 29 27 28 28 24 27 27 27 26 26 26 25
39 35 37 45 47 46 42 41 40 52 52 48 35 40 34 34 36 38 39 39 41 50 55 52 47 42 48 48 43 36 37 39 42 45 46 48 48 48 48 48 49 51 49 43
38 35 30 30 34 35 35 36 38 51 62 48 40 45 34 36 39 41 41 40 52 50 46 47 58 55 52 49 41 49 55 61 66 73 76 71 72 72 70 71 72 68 66 63
38 32 33 34 34 34 35 34 34 37 39 54 38 37 38 39 40 36 36 40 47 40 47 60 56 53 56 49 59 60 70 81 90 81 70 63 62 70 81 85 90 93 82 76
36 35 36 36 36 37 37 37 40 41 63 63 47 45 44 41 41 40 38 42 40 44 51 56 60 62 59 70 71 81 93 94 82 76 74 79 86 93 100 100 99 100 100 99
37 38 38 40 39 37 38 40 41 40 40 68 62 51 41 41 39 39 40 45 44 53 57 65 69 64 75 76 86 93 96 88 86 88 86 93 94 96 97 97 98 98 100 100
38 38 39 40 41 41 41 41 41 40 44 43 46 48 43 44 44 44 44 46 52 58 66 75 69 79 86 83 93 96 93 91 88 97 94 95 96 96 97 97 98 100 100 100
41 40 43 44 45 43 43 43 43 43 43 42 62 56 48 48 47 50 56 60 62 72 80 74 75 84 92 85 96 95 93 95 94 94 96 96 96 96 97 96 97 99 100 100
43 43 45 47 45 47 47 47 45 46 51 54 58 54 48 46 52 54 51 58 73 80 78 77 82 89 93 94 84 66 28 8 26 47 87 94 96 96 96 96 97 97 98 92
47 46 46 46 47 50 49 50 55 58 54 63 49 57 24 27 27 26 39 34 61 77 85 85 92 95 83 51 10 6 6 6 7 7 8 11 12 16 32 48 87 98 100 96
48 57 51 54 56 54 58 58 58 53 55 45 39 28 17 25 56 54 46 37 62 82 94 89 93 65 12 6 6 7 8 10 11 11 11 12 11 11 10 9 9 10 21 36
76 77 94 86 64 64 62 53 46 37 27 61 73 56 58 61 53 38 46 66 91 97 92 91 67 16 6 6 8 9 11 13 13 13 13 13 13 12 12 12 11 11 10 10
68 65 65 66 72 80 54 41 28 40 36 48 54 59 57 60 65 78 93 100 98 96 90 79 19 7 6 8 10 12 14 14 14 14 13 13 13 13 12 12 12 11 10 10
64 65 64 70 78 68 63 46 52 53 31 43 48 55 61 63 74 81 92 99 98 93 89 57 13 6 8 10 12 14 15 15 14 13 14 14 14 14 13 13 13 12 12 12
71 72 74 84 94 91 51 50 65 71 60 47 51 56 62 67 72 78 87 98 96 93 76 28 8 6 9 12 14 16 16 14 14 14 14 14 14 14 14 14 13 13 12 12
75 87 82 80 88 77 55 54 51 53 33 48 62 66 64 70 72 76 88 91 91 92 44 11 6 8 11 14 16 15 14 15 15 13 14 14 15 14 14 15 15 14 14 13
63 67 77 86 95 86 45 49 52 42 54 71 71 68 65 72 77 80 89 91 92 56 14 9 6 10 13 16 17 14 15 15 13 13 13 14 15 15 16 16 16 16 16 16
73 69 64 73 73 59 56 56 57 49 60 74 77 79 70 71 77 83 89 90 82 24 12 8 7 12 15 18 15 16 16 15 14 13 14 16 16 16 15 16 16 18 18 18
78 79 85 85 73 69 66 67 71 66 65 78 72 87 84 76 79 84 88 88 54 14 12 8 9 14 17 18 16 15 15 14 13 14 15 15 16 16 16 17 18 22 24 23
80 84 82 79 65 79 88 77 69 75 79 62 50 69 90 80 82 88 94 84 48 13 11 9 11 16 19 16 16 15 13 12 13 15 15 16 16 15 16 16 17 22 28 30
73 70 81 76 71 72 68 75 76 75 64 47 50 66 85 88 88 93 96 92 47 13 12 10 13 17 19 15 15 14 12 12 14 15 15 16 16 16 17 18 18 25 33 33

GFSCGP_700_rhum_135.txt.gz
RH
38 28 12 20 19 24 26 31 32 28 29 34 29 32 32 34 34 33 33 33 29 26 26 26 27 28 28 28 27 27 28 28 28 29 28 28 29 31 32 30 29 31 33 32
29 18 13 14 23 23 29 31 27 33 36 39 35 34 35 35 34 33 31 28 26 26 28 29 31 31 34 38 42 45 49 50 48 45 43 39 38 37 32 30 32 31 31 34
48 24 15 21 29 28 30 33 35 42 41 40 34 31 27 27 28 26 26 26 26 27 28 30 35 39 38 40 48 47 47 51 52 50 48 46 43 42 40 36 36 35 36 34
60 26 19 24 32 39 42 35 42 42 35 33 33 29 29 29 27 24 24 27 28 28 30 34 37 38 43 51 44 41 36 32 30 30 30 28 26 26 25 25 24 25 31 36
32 32 35 31 32 39 41 42 38 38 37 36 35 33 25 30 27 26 28 32 33 33 36 40 37 39 43 39 34 33 30 30 30 26 24 23 22 20 19 21 20 19 21 21
48 46 44 37 36 39 42 43 44 43 40 39 35 35 27 27 28 31 34 34 37 38 39 38 44 36 35 43 44 39 39 34 31 36 42 41 38 38 38 36 34 27 23 29
41 45 50 51 45 43 47 56 44 42 43 36 35 36 31 31 34 35 35 39 41 38 39 43 35 40 51 42 40 40 38 47 53 62 67 63 60 61 63 60 58 57 56 58
38 34 30 35 40 46 39 48 40 45 41 31 41 40 32 33 34 37 39 38 37 39 44 37 38 44 50 53 48 50 64 70 82 82 70 63 61 64 66 66 68 67 67 73
36 37 32 31 32 38 36 37 36 38 39 48 36 34 34 34 39 37 37 38 39 40 41 38 46 51 60 50 54 72 83 88 86 81 67 71 83 87 88 92 99 100 98 100
41 38 35 34 36 36 35 35 39 40 50 46 36 40 38 38 36 38 40 39 40 42 41 46 52 64 60 58 72 85 94 92 90 90 89 91 91 94 90 94 97 97 98 99
47 40 38 37 37 36 37 39 40 41 40 44 48 47 35 40 40 41 43 45 47 49 49 56 62 71 62 69 76 87 95 96 95 93 94 94 94 95 96 96 97 98 99 99
40 38 39 38 38 38 40 41 41 45 45 48 50 50 35 42 45 46 49 46 50 54 59 69 78 70 76 80 82 93 94 45 61 95 91 94 96 97 96 96 96 96 98 99
41 40 40 43 44 44 43 43 43 43 43 50 57 52 40 43 48 53 53 52 51 55 49 74 78 78 86 90 96 95 56 7 8 13 37 51 59 92 96 97 98 96 96 98
46 44 43 44 44 46 48 46 48 47 49 50 50 53 42 46 48 46 38 44 49 43 50 72 79 85 91 95 91 41 10 7 9 10 10 10 10 10 12 37 60 95 99 98
57 56 56 47 47 51 60 55 60 54 51 57 45 58 47 31 35 36 36 47 53 48 58 76 87 89 92 93 9 6 8 11 12 12 12 12 12 11 11 10 10 10 19 60
63 52 51 50 58 62 65 67 68 60 55 59 54 36 24 55 59 64 51 32 42 54 63 84 91 91 36 8 6 9 10 13 13 13 13 12 12 12 11 10 10 10 10 10
68 57 58 71 78 76 75 51 45 44 45 42 35 30 44 53 61 59 62 65 54 65 86 96 92 70 40 6 8 10 13 14 14 13 13 13 13 13 12 12 11 11 10 8
84 85 97 85 74 76 50 47 46 45 46 47 45 28 46 54 62 58 63 76 90 98 96 93 93 19 8 7 10 13 14 14 13 14 14 14 14 14 14 13 13 13 12 12
80 79 84 70 80 63 58 48 45 45 43 52 49 53 54 55 56 60 70 77 93 94 94 94 52 8 6 9 12 14 14 14 15 15 14 15 16 15 15 15 14 14 13 13
84 72 73 97 94 78 50 50 56 55 52 33 46 46 56 59 57 66 69 75 88 94 95 86 19 6 8 11 14 16 14 15 15 15 14 14 15 15 14 14 14 14 15 15
83 91 92 97 92 75 61 56 57 69 36 40 50 63 63 58 61 70 73 78 84 91 95 48 10 6 10 13 16 16 15 16 16 14 13 14 14 14 14 15 16 16 16 16
64 74 79 84 97 86 52 56 56 51 52 64 74 72 70 68 64 70 75 82 87 95 86 14 8 7 11 15 17 15 16 16 14 13 14 14 14 15 16 17 20 23 24 22
71 68 62 66 61 60 61 67 70 74 65 64 60 70 67 64 73 72 78 86 89 88 49 12 7 9 13 16 17 16 15 15 13 14 15 15 15 16 16 17 20 25 30 29
70 69 72 70 56 65 72 73 76 78 87 80 73 72 61 55 75 76 80 87 90 56 15 10 7 10 14 18 16 16 15 14 14 15 15 16 16 16 15 16 17 23 29 30
80 72 55 62 68 73 70 75 94 92 83 79 78 67 46 48 66 81 83 91 87 59 16 11 8 11 16 19 17 16 15 14 14 15 16 16 16 15 15 16 16 17 24 30
51 33 67 74 70 83 69 66 73 77 83 82 76 62 52 64 74 86 88 95 96 74 24 12 9 11 16 19 17 16 14 13 14 15 15 16 16 16 16 16 16 17 25 33

GFSCGP_700_rhum_141.txt.gz
RH
50 39 30 22 23 24 20 19 17 16 19 27 25 23 22 38 33 37 29 29 31 31 28 24 24 23 23 24 24 25 27 27 26 24 25 25 25 26 25 24 23 22 22 25
50 37 31 34 33 26 21 19 19 19 22 29 26 24 25 30 42 38 50 35 29 22 22 23 22 24 26 28 32 33 29 28 29 31 31 31 30 28 25 24 25 25 24 22
47 37 35 35 30 26 22 22 21 22 25 28 27 26 22 24 41 26 23 32 23 23 23 24 25 29 33 35 32 30 32 34 32 27 24 23 24 22 22 21 20 19 20 21
52 48 48 52 42 28 24 21 28 28 29 23 25 20 17 24 38 27 19 20 20 21 23 24 31 33 35 32 32 34 34 28 26 25 25 22 20 22 24 24 25 25 28 26
52 58 53 44 36 30 27 41 36 33 31 27 23 22 18 24 29 34 41 21 24 24 27 28 28 32 33 33 36 34 32 33 34 30 29 32 42 44 43 44 43 46 47 51
61 52 46 38 36 38 40 37 34 32 29 28 23 22 19 20 27 27 34 51 32 30 28 30 34 35 36 37 38 37 39 41 40 50 60 69 67 59 56 56 56 55 54 53
67 63 56 43 37 39 37 32 30 33 32 29 23 22 19 21 29 34 35 51 31 26 33 36 37 39 40 40 40 42 45 49 57 73 81 79 73 75 82 84 81 80 81 80
45 49 49 48 35 34 34 32 31 28 25 18 26 21 20 28 26 25 26 30 28 34 35 39 39 40 44 43 38 38 55 57 76 83 78 85 93 97 98 97 96 95 90 87
34 38 44 47 42 35 43 45 36 35 34 32 25 21 20 31 31 28 30 28 35 34 40 45 42 42 45 44 31 50 56 68 83 71 72 80 70 94 96 99 94 89 91 95
40 41 43 46 51 51 48 36 37 33 35 32 20 19 25 45 46 52 54 67 71 47 47 47 41 46 49 42 30 56 65 80 67 50 66 51 43 15 88 95 98 99 96 93
45 38 43 43 40 37 50 39 36 33 32 33 34 33 36 37 43 36 42 49 67 95 59 49 48 50 41 28 40 62 72 61 40 48 31 34 50 46 16 80 96 97 97 97
51 47 49 41 38 36 37 36 36 44 36 29 31 44 44 52 54 43 56 61 67 77 43 40 46 33 39 31 55 73 82 26 11 54 48 28 18 54 50 13 22 97 96 96
52 48 41 41 48 41 39 38 36 36 43 45 52 54 49 53 53 58 56 63 74 57 41 26 32 38 42 39 70 81 77 32 12 12 27 12 11 10 9 14 9 14 65 98
42 47 41 39 48 58 46 41 40 42 49 43 42 45 48 52 51 50 51 53 67 46 45 44 40 48 40 57 78 80 56 38 23 12 12 12 12 12 10 8 8 8 8 17
52 52 49 44 53 65 60 50 47 50 46 46 44 45 45 49 53 53 61 58 51 44 50 53 42 44 41 70 76 82 20 27 14 12 13 13 13 12 12 12 11 9 7 7
75 83 70 57 60 56 55 53 48 48 53 58 63 58 50 49 49 55 52 32 36 47 60 60 52 43 47 83 50 16 8 12 13 13 13 13 13 12 12 12 12 12 12 11
84 64 76 90 71 62 61 52 48 55 54 53 56 46 43 48 50 55 64 41 52 56 60 64 64 52 67 88 58 7 9 13 13 13 13 14 13 12 12 13 14 14 13 12
92 73 84 67 78 74 49 55 60 67 58 49 45 40 42 49 53 38 50 53 52 56 62 70 77 77 93 88 63 8 10 14 13 14 14 14 13 12 12 15 16 16 16 16
98 84 68 76 65 51 46 50 54 47 49 51 48 49 52 55 52 41 43 53 54 58 63 72 85 92 92 70 41 9 11 14 14 14 14 15 14 14 14 16 20 21 20 20
97 98 90 67 61 51 38 52 52 62 58 59 43 44 60 44 60 75 65 54 52 61 67 77 86 89 90 36 13 8 13 15 14 14 14 14 14 14 17 16 16 19 21 22
90 95 83 64 57 47 44 59 59 68 55 64 47 45 48 54 62 65 63 58 53 61 71 78 84 88 75 15 7 10 14 15 15 15 15 14 14 13 15 14 15 18 19 22
73 72 70 65 53 48 51 68 76 63 68 59 59 50 59 61 59 59 58 44 48 66 74 79 83 86 36 8 8 12 15 15 16 15 16 15 14 13 14 14 15 19 21 24
60 60 51 55 50 56 69 63 64 58 59 84 67 70 73 79 76 68 64 43 50 72 77 80 87 78 26 7 9 13 17 16 16 16 16 15 15 14 14 13 15 17 19 22
60 56 60 63 67 68 87 76 77 79 76 67 79 76 69 77 80 74 69 43 47 74 81 86 88 73 14 9 11 14 17 17 17 16 16 16 16 15 15 15 15 15 16 18
62 81 72 68 75 70 74 79 61 70 90 71 76 83 87 83 84 78 61 48 51 72 83 89 92 56 16 11 9 14 18 18 18 16 16 16 16 16 16 16 16 15 16 17
62 65 76 81 81 85 87 88 47 70 79 84 74 64 76 80 82 74 59 51 56 71 84 91 89 48 14 8 8 14 19 19 18 16 16 16 16 16 16 16 16 16 16 17

GFSCGP_700_rhum_144.txt.gz
RH
48 47 34 27 23 19 21 19 18 15 20 22 23 23 19 30 38 37 40 40 30 27 27 27 22 23 23 22 19 18 16 17 18 19 20 20 20 19 18 18 18 17 17 17
51 46 36 28 30 26 25 20 18 16 15 18 23 23 20 22 35 43 45 47 47 33 21 18 19 20 18 16 18 20 22 24 25 27 25 23 21 19 18 17 16 16 16 15
47 40 37 33 32 30 26 23 20 18 18 23 26 25 23 23 30 41 43 48 52 37 22 20 20 19 20 20 22 26 28 30 31 30 27 24 23 21 19 18 18 19 23 23
50 44 44 41 39 33 32 27 21 21 22 21 20 21 18 22 29 39 43 31 36 21 20 22 19 18 18 25 31 32 33 34 34 31 27 28 25 21 24 26 30 34 39 39
57 50 48 46 43 46 42 32 28 26 28 27 24 22 18 17 30 40 37 24 19 16 18 17 17 20 24 29 34 35 37 37 38 24 35 37 43 55 59 52 50 51 52 55
58 50 50 52 46 41 33 33 32 33 29 30 24 21 19 19 24 32 41 44 28 31 18 18 23 27 32 33 36 39 41 40 32 38 47 58 68 73 71 72 69 73 79 81
60 53 55 47 41 37 37 35 32 35 34 34 24 21 19 21 25 28 36 44 51 28 20 25 27 33 36 36 40 44 44 40 31 51 64 73 72 57 41 86 86 85 88 94
64 58 57 57 52 38 37 34 30 31 33 26 21 21 27 24 28 31 32 34 27 19 24 24 30 38 36 37 45 46 46 32 44 62 73 72 62 49 43 58 91 95 94 90
37 44 41 50 53 41 32 34 29 31 33 37 32 26 31 32 36 34 27 27 31 35 38 38 40 45 36 44 47 48 37 29 61 70 62 46 55 66 58 41 71 96 97 100
49 44 38 42 45 46 36 38 44 41 43 40 25 19 33 42 45 52 46 49 61 64 73 46 47 43 40 49 47 32 25 53 68 47 52 38 30 45 66 54 41 95 96 96
51 46 41 44 45 42 41 45 40 37 35 36 39 42 36 42 45 47 43 47 50 55 68 57 46 41 36 41 31 33 34 65 53 24 57 42 31 16 13 33 39 44 96 96
53 48 43 41 37 36 40 47 42 41 35 31 32 38 38 45 54 52 45 45 59 65 66 63 44 40 30 24 33 38 55 69 24 21 33 20 12 11 9 9 8 9 28 94
57 54 51 46 43 39 37 38 38 36 37 44 55 52 47 43 51 53 55 58 79 71 67 59 43 42 42 38 43 40 70 66 37 34 13 12 12 12 11 10 8 7 7 9
53 50 48 47 41 50 45 39 38 36 39 44 44 46 39 43 43 45 47 49 56 59 54 54 31 48 51 45 42 48 71 75 51 28 12 12 12 12 12 12 11 10 7 6
52 51 51 43 47 54 62 69 57 42 39 45 47 47 42 43 44 46 51 53 54 57 48 29 39 48 59 51 42 58 69 43 42 33 12 13 12 12 12 11 11 12 12 11
46 59 56 51 48 59 65 63 58 63 75 59 51 46 36 50 48 46 47 50 48 50 44 43 52 55 62 54 44 70 65 43 13 13 12 13 13 12 12 12 12 12 13 13
60 73 72 73 66 73 93 64 58 55 53 52 48 43 46 49 45 45 48 52 51 48 49 46 52 58 66 62 52 78 37 9 10 12 13 13 12 12 13 14 14 14 15 15
76 80 98 86 70 81 58 48 54 57 56 59 56 49 43 42 42 44 48 48 42 39 46 49 54 63 72 73 73 85 59 8 11 13 14 14 13 13 16 18 19 18 18 19
94 83 88 84 66 63 53 52 51 49 43 47 48 47 47 47 50 52 55 46 50 47 47 50 59 67 75 82 88 84 66 9 12 13 14 14 14 14 18 19 22 22 21 22
97 86 93 91 70 63 51 43 48 50 54 46 42 54 56 54 53 42 50 63 56 55 50 48 58 66 76 87 86 68 37 9 13 14 14 15 14 14 17 18 20 22 21 22
98 98 95 94 89 66 50 45 52 54 51 60 58 52 49 48 46 48 50 58 62 55 44 44 58 70 80 83 84 43 15 9 14 14 15 15 15 15 16 17 17 18 18 18
78 76 82 76 72 64 44 42 57 62 69 74 71 61 48 60 57 63 66 63 56 54 36 47 66 73 78 82 77 19 8 11 15 15 16 16 15 15 14 14 14 15 17 19
75 72 66 56 57 44 50 56 59 62 72 79 80 85 71 61 69 69 72 77 68 58 37 48 70 75 79 82 55 10 9 12 16 16 17 17 16 15 15 14 14 14 14 15
63 61 67 58 51 60 72 69 88 82 83 86 76 93 56 62 70 71 71 77 72 56 41 50 70 79 84 84 42 8 9 13 17 17 17 17 17 16 16 15 15 14 14 14
67 66 80 67 60 63 65 78 83 90 87 81 84 66 74 67 69 86 84 82 70 53 46 53 72 83 89 87 34 9 12 13 18 17 18 17 17 16 16 16 16 15 15 14
68 68 64 76 67 69 58 60 64 69 60 58 68 71 78 65 44 54 70 77 65 54 50 58 76 86 93 91 30 11 9 12 18 19 18 18 17 16 16 16 16 16 16 16

GFSCGP_700_rhum_147.txt.gz
RH
58 45 32 19 24 15 16 22 18 18 20 20 21 21 22 25 25 26 23 26 26 26 21 20 24 18 17 17 16 13 12 10 11 12 14 16 16 16 17 16 16 15 14 14
54 50 33 26 29 31 27 22 19 17 20 19 20 20 18 22 23 25 28 33 34 32 24 18 18 16 15 12 10 9 10 13 15 18 20 20 18 14 12 14 16 17 17 16
53 36 41 36 32 33 30 26 24 21 20 19 22 24 23 20 23 34 40 42 44 41 26 19 14 12 10 9 10 12 13 16 20 21 22 22 12 13 19 22 25 27 28 31
56 46 42 41 40 33 31 30 28 26 22 21 21 25 22 22 22 32 43 46 50 44 24 14 13 10 9 10 12 14 14 18 22 24 25 17 13 27 36 48 53 51 42 39
56 52 50 48 45 41 37 34 36 35 24 23 23 27 25 21 25 34 41 43 48 34 18 18 13 12 11 12 14 14 16 22 28 30 29 18 35 46 58 59 55 56 53 47
69 59 57 54 50 46 47 47 37 33 31 39 32 29 24 20 19 33 40 42 41 25 22 22 17 16 18 17 17 15 23 28 36 33 20 33 46 60 64 62 53 53 66 62
85 70 63 56 52 52 46 40 39 44 44 47 26 28 25 22 21 23 30 38 36 35 30 25 24 21 28 27 17 15 26 35 36 22 31 47 60 56 61 63 55 63 77 83
93 86 80 64 56 48 37 35 37 46 55 44 33 29 30 25 25 35 38 38 40 38 36 31 27 21 35 23 17 18 31 37 23 26 52 56 53 44 36 35 36 33 83 93
97 72 60 59 54 55 48 40 38 33 35 42 34 33 33 31 32 38 38 40 28 26 33 37 28 36 40 27 23 19 25 21 26 45 56 58 47 32 21 12 15 14 94 96
87 89 50 43 47 56 56 39 37 36 53 57 38 33 32 35 34 35 34 31 34 36 39 40 32 44 54 37 26 28 21 27 32 57 43 52 37 22 11 9 11 8 31 92
61 73 68 44 46 53 58 59 37 42 38 57 66 48 40 37 38 44 46 44 48 47 46 40 52 60 62 45 34 38 32 35 44 46 43 37 23 11 12 11 8 7 7 34
55 61 69 53 43 45 46 41 39 42 41 41 40 41 41 46 50 50 50 47 54 55 58 64 68 67 59 49 30 44 42 34 55 34 36 27 11 12 12 11 11 8 7 6
73 83 50 46 42 39 42 40 43 41 41 36 54 51 49 48 48 45 46 54 59 66 61 59 59 61 59 37 38 49 48 37 59 43 41 28 12 12 12 11 11 11 11 9
61 64 64 54 50 40 36 35 37 46 45 42 39 37 41 43 47 46 45 45 50 49 55 56 58 55 54 39 50 58 51 41 62 63 56 25 12 12 12 11 11 11 11 11
69 59 56 49 48 46 42 36 34 37 41 45 41 41 41 43 43 43 42 44 44 48 50 47 36 32 46 53 56 59 52 45 66 47 38 20 13 12 12 12 12 13 12 12
71 73 55 52 50 53 56 46 48 49 54 55 55 47 52 49 46 43 48 48 46 46 47 46 27 39 47 54 61 64 52 59 67 43 28 14 13 12 13 13 14 15 15 15
59 61 58 52 41 64 67 45 59 53 46 59 57 52 48 50 48 47 50 46 46 46 48 46 32 38 46 56 68 69 58 68 57 15 11 12 13 13 13 16 17 18 19 19
82 68 61 64 66 82 54 57 49 48 46 46 50 48 46 49 49 46 43 44 46 49 46 41 42 42 44 60 65 74 72 81 50 9 12 13 14 13 13 16 18 19 21 22
86 72 77 76 92 65 56 56 55 54 47 53 52 57 58 54 48 47 48 50 46 38 51 52 49 45 45 57 70 80 86 85 62 10 12 13 14 14 14 16 18 19 18 20
87 83 82 97 96 93 51 44 48 51 50 50 50 50 44 49 51 48 44 40 45 48 52 58 54 45 45 62 71 79 88 84 53 10 13 14 15 14 14 17 17 17 19 17
100 100 96 98 91 76 53 55 52 52 54 52 53 48 44 50 50 44 43 50 55 60 58 54 47 37 53 68 73 81 84 60 27 10 14 14 15 15 15 16 16 16 18 18
89 98 98 100 98 89 56 45 47 43 47 49 55 59 57 59 40 26 37 53 55 60 71 64 49 40 63 72 77 84 86 37 12 10 15 15 16 17 16 15 15 15 14 13
93 88 80 66 56 38 47 53 60 58 59 58 65 66 58 44 38 35 52 58 61 62 74 72 50 45 66 76 81 85 71 23 9 11 15 16 17 18 17 16 15 14 13 13
59 59 66 64 58 58 62 63 59 74 79 80 79 65 62 60 39 46 59 61 75 70 77 69 51 51 69 80 86 88 60 12 8 16 16 17 17 18 18 17 16 16 15 15
63 72 88 73 66 58 66 64 53 69 85 93 83 77 73 63 46 61 62 56 71 77 77 67 55 56 70 81 90 92 64 18 8 12 17 18 18 18 18 17 17 16 16 16
67 63 68 67 67 68 64 67 62 69 76 76 82 75 62 39 52 66 55 42 44 52 61 59 54 54 67 82 94 96 76 18 8 12 15 18 19 19 18 18 17 17 17 17

GFSCGP_700_rhum_150.txt.gz
RH
82 79 57 44 36 25 25 22 24 20 18 19 17 18 19 20 22 23 21 22 23 22 24 25 23 18 16 13 10 8 7 7 7 8 9 10 10 10 10 10 8 8 10 13
93 83 48 47 35 29 30 34 30 23 19 21 19 20 20 20 19 19 19 20 22 23 26 29 22 18 13 11 8 8 8 8 7 6 7 10 11 11 10 10 14 21 25 27
79 57 50 46 32 38 37 37 28 25 21 21 21 22 21 22 23 27 30 32 31 29 32 34 24 14 13 12 11 11 11 9 7 7 10 13 12 12 13 20 27 35 39 42
78 66 51 49 46 38 41 36 32 29 28 26 23 26 22 22 22 23 26 32 36 36 36 40 18 16 16 15 17 16 16 15 11 10 11 11 13 12 21 34 48 55 53 44
77 56 48 46 47 46 43 37 32 31 34 37 27 24 23 24 24 22 23 31 41 43 45 43 19 20 20 20 19 20 19 15 11 10 11 15 14 27 39 50 51 44 22 38
71 59 59 57 55 54 50 44 45 46 43 41 36 27 28 27 26 24 22 31 40 45 50 46 23 23 24 22 26 22 16 13 11 12 17 18 25 40 50 43 27 19 19 38
88 75 56 60 63 63 51 48 45 45 45 48 36 33 34 31 25 23 21 28 42 47 49 41 28 27 27 35 35 33 22 17 16 20 23 22 38 48 37 24 13 19 18 23
97 87 82 66 64 72 62 50 51 79 66 46 34 32 28 26 25 23 24 33 45 49 40 31 32 33 37 45 47 36 27 20 27 30 26 33 43 37 26 12 13 10 7 59
100 96 84 76 64 70 62 49 48 52 46 46 34 36 34 31 28 24 30 42 45 43 39 32 40 35 43 52 54 47 40 25 35 38 29 36 41 26 14 10 10 8 7 35
86 89 81 61 57 72 88 76 44 69 81 60 41 36 31 32 32 34 43 44 41 31 36 44 37 40 58 61 58 54 44 24 36 39 34 41 35 26 11 11 11 10 7 8
85 81 85 75 59 56 54 60 69 63 47 61 65 45 33 35 33 34 36 35 36 43 43 46 48 58 65 59 58 58 43 30 40 43 38 44 40 24 11 12 11 11 10 8
58 67 75 82 68 60 54 54 57 77 82 68 36 44 37 38 38 41 41 45 47 52 54 37 46 60 58 58 59 61 44 42 51 47 41 46 36 22 12 11 10 11 11 11
58 82 92 70 72 55 58 54 60 83 75 48 56 49 40 46 50 49 50 51 52 52 50 47 50 55 55 51 57 58 44 50 54 50 43 51 45 25 12 11 11 11 11 11
60 66 89 83 62 50 42 50 54 46 50 50 41 38 46 50 54 54 55 56 50 47 49 51 50 52 49 34 37 45 49 50 55 50 44 59 60 19 12 11 12 12 13 13
75 72 80 86 91 79 60 44 38 39 44 48 42 40 40 44 46 50 57 58 48 44 51 52 49 49 46 34 41 46 49 54 60 49 55 61 35 14 12 12 13 14 15 15
59 64 76 84 83 76 62 49 40 39 37 42 44 41 42 40 42 50 53 55 46 43 48 48 48 48 44 35 44 49 55 61 62 55 64 40 21 13 13 12 15 17 18 19
63 70 76 94 66 73 68 50 52 50 47 45 47 38 38 47 52 53 56 50 48 50 47 46 48 42 38 42 44 47 56 66 65 64 61 21 12 12 13 13 17 18 20 20
70 63 79 81 76 93 52 52 44 44 49 52 44 38 36 48 52 54 52 49 48 46 47 47 39 47 47 47 44 47 60 71 74 78 45 10 12 13 14 14 19 18 19 20
87 80 90 96 97 75 53 52 50 53 41 44 43 40 52 56 62 56 49 49 51 50 41 38 42 44 54 52 47 51 66 77 86 88 56 11 13 14 15 15 18 19 20 18
87 100 95 98 94 91 45 46 51 57 52 42 47 47 49 58 54 52 52 52 48 40 42 42 49 55 53 40 40 58 70 78 88 88 55 13 13 14 16 16 17 19 18 18
100 98 94 96 96 71 59 52 52 56 45 44 45 49 52 52 47 51 53 50 36 26 33 44 51 61 56 40 45 66 72 78 87 70 27 13 14 16 17 17 17 18 18 17
82 99 98 99 97 89 64 58 63 50 50 49 40 44 52 48 49 55 54 33 27 31 44 49 63 71 65 42 52 70 74 82 84 44 15 12 15 16 19 18 18 17 17 16
78 61 80 79 75 76 66 57 64 58 50 47 48 52 60 59 57 60 48 32 28 43 49 60 66 73 59 44 54 71 78 82 80 43 10 11 15 16 19 20 19 18 17 16
84 67 70 76 72 55 59 62 61 57 63 64 71 80 76 70 62 59 45 34 44 52 60 74 78 70 55 50 60 73 82 88 76 30 9 11 17 18 19 20 19 18 17 17
62 66 65 61 61 60 63 64 69 65 66 69 71 71 75 82 75 62 59 36 57 50 66 83 80 70 59 56 64 79 89 93 82 34 9 9 16 18 19 21 20 19 18 18
80 75 75 70 61 72 66 70 66 63 66 66 62 55 58 82 76 49 26 54 65 50 46 60 67 63 56 52 60 78 92 98 92 48 11 10 16 18 19 20 20 21 18 18